IRIDIUM 33 DEB, 34366

Orbit data source: Space-Track

IRIDIUM 33 DEB, 34366 is space debris in LEO originally from a launch on Sun, 14 Sep 1997 UTC launched from the Tyuratam Missile And Space Complex (TTMTR). The debris from Iridium 33, an American commercial communications satellite, has been tracked extensively since its accidental collision with the defunct Russian satellite Cosmos 2251 in 2009. This event, occurring at high speed in low Earth orbit (LEO), generated thousands of pieces of space debris, significantly increasing the risk of further collisions. The Iridium 33 debris cloud has impacted space traffic management and orbital debris mitigation strategies, making it a subject of ongoing study in space situational awareness.

Loading next visibility...
Identifier
34366, 1997-051FJ
Orbit
LEO
Country
Flag of USUS
Related business
Manufacturer
Unknown
Mission
Spacecraft
Bus & Motor
Unknown
Mass
Unknown
Launch date (UTC)
1997-09-14 (28 years ago)
Launch vehicle
Unknown
Launch site
Tyuratam Missile And Space Complex (TTMTR)
Object type
Payload
Rocket body
Debris
Shape & HBR
Unknown shape, 0.1 m
Radar Cross Section
Small (<0.1 m²)

Expand to show TLE details & history
Last TLE update: 7 hours ago

TLE from 7 hours ago
0 IRIDIUM 33 DEB
1 34366U 97051FJ  26037.95899613  .00007031  00000-0  16360-2 0  9991
2 34366  86.3692  24.8393 0018713 319.4985  99.6800 14.54667330889990
Epoch: 2026-02-06T23:00Z
TLE epoch observation values (Epoch: 2026-02-06T23:00:57.265Z)
Latitude
59.29206°
Longitude
-91.38877°
Altitude
722.848 km
Speed
7.498 km/s
True Right ascension
02h 03m 45s
True Declination
59° 08' 24"
Sunlit
Object was in daylight at epoch
Visualization orbit readout
Latitude
Unknown
Longitude
Unknown
Altitude
Unknown
Speed
Unknown
Apparent Right ascension
Unknown
Apparent Declination
Unknown
Sunlit
N/A
Visualization observer readout
Local Sidereal Time
07:59:08
Azimuth
Unknown
Elevation
Unknown
Doppler factor
Unknown
Orbital elements
Apogee altitude
720.641 km
Perigee altitude
694.122 km
Semi-major axis
7,085.518 km
Eccentricity
0.00187
Inclination
86.3692°
RAAN
24.8393°
Arg. of periapsis
319.4985°
True anomaly
99.8913°
Mean anomaly
99.68°
Eccentric anomaly
99.78566°
Mean motion
3.63903 °/min
Orbital period
98.93 mins
BSTAR
0.001636
Loading maneuver chart data...
Computing Atmospheric mass density...

Documentation

Showing up to 5 results
|